Regional Weather Roundup
Issued by NWS Portland, ME

Current Version | Previous Version | Text Only | Print | Product List | Glossary Off
Versions: 1 2 3 4 5 6 7 8 9 10 11 12 13 14 15 16 17 18 19 20 21 22 23 24 25 26 27 28 29 30 31 32 33 34 35 36 37 38 39 40 41 42 43 44 45 46 47 48 49 50
000 ASUS41 KGYX 201405 RWRGYX WEATHER ROUNDUP FOR MAINE AND NEW HAMPSHIRE NATIONAL WEATHER SERVICE GRAY ME 1000 AM EDT SUN AUG 20 2017 MEZ002-005-006-010-012-015-018-020-021-024-026-027-029-201500- MAINE CITY SKY/WX TMP DP RH WIND PRES REMARKS PORTLAND SUNNY 79 61 53 NW10 29.89S SANFORD SUNNY 77 61 57 W15G22 29.91S BAR HARBOR MOSUNNY 69 67 93 S6 29.86F WISCASSET PTSUNNY 77 66 68 VRB3 29.89S ROCKLAND SUNNY 76 64 66 W8 29.87S FRYEBURG SUNNY 75 57 53 NW12G23 29.92R LEWISTONAUBURN SUNNY 75 62 64 NW12 29.89S AUGUSTA SUNNY 75 62 64 VRB5 29.89R WATERVILLE SUNNY 73 62 68 W8 29.86R BANGOR MOSUNNY 76 64 66 W6 29.86S GREENVILLE N/A 67 61 81 VRB5 29.86S MILLINOCKET PTSUNNY 72 62 71 W7 29.85S HOULTON CLOUDY 70 68 93 SW7 29.81R PRESQUE ISLE CLOUDY 68 63 84 SW9 29.80S FRENCHVILLE CLOUDY 64 61 90 CALM 29.78S CARIBOU CLOUDY 68 62 81 SW10 29.78S $$ NHZ002-005-008-009-011-012-014-201500- NEW HAMPSHIRE CITY SKY/WX TMP DP RH WIND PRES REMARKS PORTSMOUTH MOSUNNY 77 62 59 NW15G21 29.91R ROCHESTER SUNNY 77 59 53 NW13G21 29.91S NASHUA SUNNY 76 61 59 NW15 29.95S MANCHESTER MOSUNNY 75 58 55 NW15 29.93S CONCORD MOSUNNY 75 62 64 W7 29.94S LACONIA SUNNY 73 58 59 W14G24 29.95R PLYMOUTH FAIR 72 58 60 W10G20 29.94S BERLIN CLOUDY 69 57 65 VRB5 29.95R WHITEFIELD PTSUNNY 68 56 65 NW16G22 29.97R JAFFREY SUNNY 74 60 61 VRB6 29.99S KEENE N/A N/A N/A N/A MISG N/A LEBANON PTSUNNY 72 60 66 NW6 29.97R MT WASHINGTON FOG 45 45 100 W56G66 N/A VSB 0 $$ VTZ005-007-008-201500- VERMONT CITY SKY/WX TMP DP RH WIND PRES REMARKS ST JOHNSBURY N/A 70 58 65 MISG 29.96R MONTPELIER PTSUNNY 65 55 70 NW9G21 30.03R BURLINGTON MOSUNNY 72 57 59 NW13G20 30.00R $$ MAZ007-012-024-CTZ003-RIZ002-NYZ038-NYZ072-201500- SOUTHERN NEW ENGLAND AND NY CITY SKY/WX TMP DP RH WIND PRES REMARKS BOSTON MOSUNNY 79 59 50 W17 29.93S WORCESTER SUNNY 72 57 59 W13 29.99R NANTUCKET SUNNY 78 67 68 W14 29.94R PROVIDENCE SUNNY 78 62 57 W9 29.97R HARTFORD MOSUNNY 76 60 57 NW12 29.99S ALBANY PTSUNNY 73 59 61 NW14G22 30.03R NEW YORK CITY MOSUNNY 75 61 61 NW13 30.03R $$ ANZ081-ANZ082-ANZ150-NHZ014-MEZ023>029-201500- COASTAL MARINE OBSERVATIONS STATION/POSITION TIME TEMP WIND PRES WAVE AIR SEA DIR/SP/G HT/PER (UTC) (F) (DEG/KT/KT) (MB) (FT/S) MOUNT DESERT ROC 1400 58 1011.8R MATINICUS ROCK 1300 59 220/ 8/ 8 1011.4R ISLE OF SHOALS 1300 70 270/ 9/ 10 1012.5R JEFFREYS LEDGE 1306 66 N/A 3/ 7 CASHES LEDGE BUO 1250 73 68 1012.0 3/ 7 GEORGES BANK BUO 1250 65 63 1013.0 5/ 6 $$ .............KEY.............. WCI - WIND CHILL TC - TEMPERATURE IN CELSIUS VSB - VISIBILITY IN MILES HX - HEAT INDEX FAIR- INDICATES FEW OR NO CLOUDS BELOW 12,000 FT, WITH NO SIGNIFICANT WEATHER AND/OR OBSTRUCTIONS TO VISIBILITY.

USA.gov is the U.S. government's official web portal to all federal, state and local government web resources and services.